[Date Prev][Date Next][Thread Prev][Thread Next] - [Date Index][Thread Index][Author Index]
2 Line ISS Keps 2-23
- Subject: [sarex] 2 Line ISS Keps 2-23
- From: "Dave Larsen PhD" <doc@xxxxxxxxxxx>
- Date: Mon, 23 Feb 2004 02:26:30 -0800
ISS
1 25544U 98067A 04054.17402778 .00014694 00000-0 13815-3 0 2504
2 25544 51.6283 191.3474 0006362 197.8197 162.9089 15.67374805300278
----
Via the sarex mailing list at AMSAT.ORG courtesy of AMSAT-NA.
To unsubscribe, send "unsubscribe sarex" to Majordomo@amsat.org
AMSAT Home